Погода в Морсове

Россия / Пензенская область     53°44′16″N   42°19′19″E
темп.,
°C
ветер,
м/с
пор.,
м/с
влажн.,
%
обл.,
%
осадки,
мм/ч
давл.,
гПа
погр.,
м
28 ноября, вс
вс2800:00+1ю61597100 3.1 1009713
03:00+1ю51395100 3.3 1008571
06:00+2ю41198100 0.1 1007403
09:00+2ю41199100 0.1 1008350
12:00+2ю3999100 0.0 1009328
15:00+2ююз27100100 0.0 1010228
18:00+2ю27100100 0.1 1011155
21:00+2ю27100100 0.1 1012145
29 ноября, пн
пн2900:00+2ююв25100100 0.1 101395
03:00+2юв26100100 0.1 1012135
06:00+3юв3899100 0.0 1011195
09:00+3юв41399100 0.0 1009328
12:00+5юв61697100 4.1 1005776
15:00+6ююв61696100 7.1 1002824
18:00+6ю61596100 1.6 1001618
21:00+6ююв51595100 2.8 997534
30 ноября, вт
вт3000:00+7ююв61595100 3.8 992839
03:00+9ю71893100 5.6 9871201
06:00+10ю81887100 0.6 9831110
09:00+9ююз81977100 0.9 9831871
12:00+5юз92074100 0.1 9851525
15:00+4юз112269100 0.3 9851644
18:00+2юз102070100 0.1 9881357
21:00+2юз81668100 0.1 9911155
1 декабря, ср
ср100:00+1юз51169100 0.0 9911123
03:000юз51176100 0.0 991814
06:000ююз4980100 0.0 991782
09:00−1юз4880100 0.1 9921028
12:000зюз587290 0.1 9921126
15:00−1зюз597298 0.1 9911218
18:00−2зюз4992100 0.1 993810
21:00−2з51094100 1.1 994730
2 декабря, чт
чт200:00−3з51093100 1.5 996859
03:00−4з51084100 1.9 999805
06:00−5з41084100 0.0 1002719
09:00−5зюз498296 0.0 1005671
12:00−3зюз4869100 0.0 1006628
15:00−3ююз41067100 0.0 1006601
18:00−2ююз5149096 0.1 1006793
21:00−1ююз61495100 0.5 1005747